{"data":{"norad_id":68774,"intl_designator":"2026-086J","name":"STARLINK-37381","alt_names":[],"object_type":"PAYLOAD","status":"ACTIVE","operator":null,"country":"US","launch_date":"2026-04-19","launch_site_code":"AFWTR","launch_vehicle":null,"mission":null,"orbit_class":"UNKNOWN","rcs_meters":null,"size_class":null,"mass_kg":null,"dimensions":null,"purposes":["comms"],"wikipedia_slug":null,"has_3d_model":false,"image_url":null,"decayed_at":null,"tle_current":{"epoch":"2026-05-25T04:00:03.998880Z","epoch_age_seconds":64611,"freshness":"FRESH","line1":"1 68774U 26086J   26145.16671295 -.01914663  00000+0 -22821-1 0  9996","line2":"2 68774  97.2846 182.0158 0001419  92.8454 232.1028 15.64175216  6071","mean_motion":15.64175216,"eccentricity":0.0001419,"inclination_deg":97.2846,"raan_deg":182.0158,"arg_perigee_deg":92.8454,"mean_anomaly_deg":232.1028,"bstar":-0.022821,"rev_number":607,"period_min":92.061297562459,"perigee_km":374.65351147829,"apogee_km":376.57022540715,"semimajor_km":6753.7488684427,"source":"CELESTRAK","updated_at":"2026-05-25T13:38:22.035759Z"}}}